Location: Unspecified
(49.2170°N, 0.0000°E)
Time: 22:06:30
(UTC+00:00)

Tiros 1 - All Passes

Search period start: 19 January 2021 00:00
Search period end: 29 January 2021 00:00
Orbit: 630 x 663 km, 48.4° (Epoch: 18 January)

Date Brightness Start Highest point End Pass type
(mag) Time Alt. Az. Time Alt. Az. Time Alt. Az.
19 Jan - 01:31:43 10° W 01:35:49 31° SSW 01:39:54 10° SSE night (unlit)
19 Jan - 19:10:38 10° SSW 19:14:10 22° SE 19:17:41 10° E visible
19 Jan - 20:51:13 10° WSW 20:55:46 59° SSE 21:00:19 10° E visible
19 Jan - 22:33:13 10° W 22:37:51 82° S 22:42:30 10° E night (unlit)
20 Jan - 00:15:24 10° W 00:19:54 52° SSW 00:24:25 10° SE night (unlit)
20 Jan - 01:58:18 10° W 02:01:24 18° SW 02:04:31 10° S night (unlit)
20 Jan - 17:57:58 10° SE 17:58:35 10° SE 17:59:12 10° SE visible
20 Jan - 19:35:34 10° SW 19:39:49 37° SSE 19:44:04 10° E visible
20 Jan - 21:17:05 10° WSW 21:21:41 76° S 21:26:20 10° E visible
20 Jan - 22:59:13 10° W 23:03:50 73° SSW 23:08:28 10° ESE night (unlit)
21 Jan - 00:41:32 10° W 00:45:40 33° SSW 00:49:50 10° SSE night (unlit)
21 Jan - 18:20:38 10° S 18:24:02 20° SE 18:27:27 10° E visible
21 Jan - 20:01:04 10° WSW 20:05:37 57° SSE 20:10:09 10° E visible
21 Jan - 21:43:03 10° W 21:47:42 82° S 21:52:20 10° E night (unlit)
21 Jan - 23:25:14 10° W 23:29:45 54° SSW 23:34:16 10° SE night (unlit)
22 Jan - 01:08:02 10° W 01:11:17 19° SW 01:14:32 10° S night (unlit)
22 Jan - 18:45:28 10° SW 18:49:40 35° SSE 18:53:53 10° E visible
22 Jan - 20:26:55 10° WSW 20:31:32 75° S 20:36:10 10° E visible
22 Jan - 22:09:03 10° W 22:13:41 75° S 22:18:19 10° ESE night (unlit)
22 Jan - 23:51:21 10° W 23:55:32 35° SSW 23:59:44 10° SE night (unlit)
23 Jan - 17:30:39 10° S 17:33:55 19° SE 17:37:12 10° E visible
23 Jan - 19:10:56 10° WSW 19:15:28 55° SSE 19:19:59 10° E visible
23 Jan - 20:52:53 10° W 20:57:32 83° S 21:02:10 10° E visible
23 Jan - 22:35:04 10° W 22:39:36 56° SSW 22:44:08 10° ESE night (unlit)
24 Jan - 00:17:47 10° W 00:21:10 20° SW 00:24:33 10° S night (unlit)
24 Jan - 17:55:23 10° SSW 17:59:32 33° SSE 18:03:42 10° E visible
24 Jan - 19:36:45 10° WSW 19:41:22 73° S 19:46:00 10° E visible
24 Jan - 21:18:53 10° W 21:23:32 76° S 21:28:09 10° ESE visible
24 Jan - 23:01:10 10° W 23:05:24 36° SSW 23:09:39 10° SE night (unlit)
25 Jan - 00:46:17 10° SW 00:46:37 10° SW 00:46:57 10° SW night (unlit)
25 Jan - 16:40:40 10° S 16:43:49 18° SE 16:46:56 10° E daylight
25 Jan - 18:20:48 10° SW 18:25:19 52° SSE 18:29:49 10° E visible
25 Jan - 20:02:43 10° W 20:07:21 82° S 20:12:00 10° E visible
25 Jan - 21:44:54 10° W 21:49:27 59° SSW 21:54:00 10° ESE visible
25 Jan - 23:27:33 10° W 23:31:03 21° SW 23:34:33 10° SSE night (unlit)
26 Jan - 17:05:17 10° SSW 17:09:25 31° SSE 17:13:30 10° E daylight
26 Jan - 18:46:35 10° WSW 18:51:13 72° SSE 18:55:49 10° E visible
26 Jan - 20:28:43 10° W 20:33:21 78° S 20:37:59 10° ESE visible
26 Jan - 22:10:58 10° W 22:15:16 38° SSW 22:19:33 10° SE night (unlit)
26 Jan - 23:55:15 10° WSW 23:56:31 11° SW 23:57:47 10° SSW night (unlit)
27 Jan - 15:50:43 10° S 15:53:41 17° SE 15:56:40 10° E daylight
27 Jan - 17:30:40 10° SW 17:35:10 50° SSE 17:39:39 10° E visible
27 Jan - 19:12:32 10° W 19:17:12 82° S 19:21:50 10° E visible
27 Jan - 20:54:43 10° W 20:59:18 61° SSW 21:03:51 10° ESE visible
27 Jan - 22:37:19 10° W 22:40:56 23° SW 22:44:33 10° SSE night (unlit)
28 Jan - 16:15:12 10° SSW 16:19:16 30° SSE 16:23:19 10° E daylight
28 Jan - 17:56:25 10° WSW 18:01:03 70° SSE 18:05:40 10° E visible
28 Jan - 19:38:33 10° W 19:43:12 79° S 19:47:49 10° ESE visible
28 Jan - 21:20:47 10° W 21:25:08 40° SSW 21:29:27 10° SE visible
28 Jan - 23:04:40 10° WSW 23:06:25 12° SW 23:08:09 10° SSW night (unlit)
